Lapse_Rate
6.2 5.9 5.7 5.7 5.8 5.3 5.1 4.5 4.4 4.5 4.3 4.4 4.6 4.5 4.4 4.6 4.5 4.4 4.4 4.5 4.8 4.9 4.9 4.8 4.9 4.9 4.9 5.0 5.2 5.4 5.6 5.8
5.8 5.5 5.5 5.2 5.3 5.0 4.5 4.8 4.6 4.6 4.3 4.5 4.5 4.5 4.6 4.6 4.6 4.7 5.0 5.1 5.0 4.9 4.8 4.8 4.7 4.8 4.9 5.2 5.7 6.1 6.3 6.4
5.1 5.1 5.0 5.3 4.9 4.8 4.8 4.8 4.8 4.7 4.3 4.2 4.4 4.5 4.5 4.5 4.7 4.9 4.9 4.9 4.9 4.9 4.8 4.7 4.8 5.1 5.6 6.0 6.3 6.4 6.5 6.6
5.7 5.3 5.0 4.9 5.0 4.9 4.7 5.0 5.0 4.4 4.1 4.4 4.3 4.3 4.5 4.9 5.1 5.2 5.1 5.0 4.9 4.8 4.8 4.9 5.2 5.7 6.2 6.2 6.3 6.4 6.7 6.8
5.3 5.1 5.0 5.0 4.8 4.9 5.1 5.0 4.8 4.7 4.6 4.6 4.5 4.7 5.2 5.3 5.2 5.0 4.9 5.0 4.9 5.0 5.3 5.9 6.2 6.3 6.4 6.6 6.8 6.7 6.7 6.6
5.2 5.1 5.0 5.0 4.9 4.9 4.8 4.9 4.8 4.2 4.4 4.6 4.9 5.3 5.3 5.1 5.0 5.0 5.0 5.1 5.3 5.9 6.3 6.4 6.6 6.8 6.8 6.6 6.5 6.3 6.2 6.2
5.0 5.1 5.0 4.8 4.7 4.8 4.9 4.5 4.2 4.6 4.8 4.9 5.2 5.2 5.1 5.1 5.1 5.1 5.4 5.8 6.4 6.5 6.6 6.9 6.8 6.5 6.3 6.3 6.2 6.1 6.1 6.0
5.0 5.0 4.8 4.7 4.7 4.9 4.7 4.8 5.2 4.9 4.9 5.1 5.1 5.0 5.0 5.1 5.2 5.5 5.9 6.6 6.6 6.8 6.9 6.7 6.5 6.3 6.2 6.2 6.1 6.0 6.0 6.0
5.0 4.9 4.8 5.0 4.9 4.6 4.5 4.8 5.0 4.7 5.1 5.1 4.9 5.0 5.1 5.2 5.5 6.0 6.6 6.7 6.9 6.9 6.7 6.5 6.3 6.3 6.3 6.2 6.1 6.0 5.9 5.9
5.0 4.9 5.1 4.8 4.2 4.1 4.9 4.8 4.6 5.0 5.1 4.9 5.0 5.0 5.3 5.5 6.1 6.7 6.8 6.9 7.1 6.8 6.6 6.4 6.4 6.3 6.3 6.1 6.0 5.9 5.9 5.8
5.1 5.0 4.7 4.2 4.0 3.8 4.6 4.7 5.0 5.1 4.9 5.0 5.0 5.3 5.5 6.1 6.7 6.9 7.1 7.3 7.1 6.8 6.6 6.5 6.5 6.3 6.1 6.0 5.9 5.7 5.7 5.8
5.0 4.9 4.1 4.2 3.8 4.7 4.6 5.0 5.1 5.0 5.1 5.0 5.3 5.5 5.9 6.5 6.8 7.1 7.4 7.2 7.0 6.8 6.6 6.5 6.3 6.2 6.0 5.9 5.6 5.3 5.3 5.7
5.0 4.5 4.3 4.2 4.2 4.8 5.1 5.3 5.1 5.2 5.1 5.2 5.5 5.7 6.3 6.8 7.0 7.4 7.2 7.1 7.0 6.8 6.6 6.5 6.3 6.2 6.0 5.6 5.4 5.3 5.5 5.7
4.7 4.3 4.3 4.0 5.0 5.2 5.4 5.3 5.2 5.1 5.2 5.5 5.7 6.1 6.7 6.8 7.1 7.2 7.1 7.1 7.0 6.8 6.6 6.4 6.2 5.8 5.4 5.2 5.2 5.3 5.4 5.4
4.4 4.4 4.2 4.8 5.3 5.5 5.6 5.3 5.2 5.2 5.4 5.7 5.8 6.5 6.8 6.7 7.1 7.1 7.1 7.0 6.9 6.8 6.5 6.2 6.0 5.5 5.1 5.1 5.2 5.3 5.3 5.3
4.4 4.4 5.3 5.4 5.7 5.8 5.5 5.4 5.3 5.3 5.6 5.7 6.2 6.8 6.8 6.9 7.2 7.1 7.0 6.9 6.8 6.6 6.4 6.2 5.9 5.3 4.9 4.9 5.1 5.2 5.3 5.5
4.9 5.5 5.6 5.8 6.0 5.8 5.6 5.4 5.3 5.5 5.7 5.8 6.6 6.9 6.8 7.0 7.1 7.0 6.9 6.8 6.8 6.6 6.3 6.0 5.8 5.5 5.0 5.0 5.0 5.1 5.2 5.4
5.6 5.7 5.8 6.1 6.2 5.9 5.6 5.4 5.5 5.7 5.8 6.2 6.9 7.0 6.9 7.1 7.0 6.9 6.8 6.7 6.8 6.6 6.2 5.9 5.9 5.7 5.5 5.4 5.2 5.0 5.0 5.3
5.8 5.8 6.2 6.4 6.2 6.0 5.6 5.5 5.5 5.8 5.9 6.5 7.1 7.1 6.9 7.2 7.0 6.9 6.8 6.7 6.7 6.6 6.2 6.1 5.9 5.9 5.7 5.6 5.4 5.2 5.1 5.2
Wind_Speed
13 14 12 11 9 8 8 7 8 8 8 7 7 8 11 15 15 16 16 10 7 6 6 9 11 7 4 4 3 2 3 2
12 11 9 10 8 9 9 7 6 5 3 3 3 2 2 5 14 17 17 15 12 10 10 10 11 3 4 4 3 3 2 2
11 10 8 8 7 7 6 6 7 4 2 2 0 1 1 2 10 14 14 15 14 11 10 9 9 3 5 5 3 2 2 2
10 9 6 5 6 4 5 5 5 5 6 4 4 3 3 3 3 4 10 13 12 10 11 9 8 5 3 4 3 3 2 2
5 7 4 3 3 4 3 3 5 5 8 5 6 2 2 2 2 4 11 16 16 14 13 12 10 7 5 4 4 2 1 3
6 6 4 4 4 1 0 5 5 6 7 6 4 4 2 3 3 6 5 13 17 15 14 13 10 9 7 5 5 4 2 2
5 4 2 2 2 1 4 5 6 7 6 7 7 6 6 5 5 5 5 4 10 16 16 14 14 10 6 6 6 5 4 4
6 5 2 3 1 2 5 6 6 6 7 6 6 5 6 6 6 4 7 5 4 7 14 12 11 13 12 9 4 5 4 3
6 5 4 1 3 4 5 6 5 5 5 6 6 6 4 4 4 5 5 4 6 14 14 14 14 14 12 8 3 3 4 5
6 5 1 2 3 5 5 5 5 5 5 6 7 6 6 6 7 7 4 9 10 14 14 11 13 12 10 6 3 5 6 6
5 3 2 2 4 5 5 5 5 4 5 5 5 6 7 8 8 8 8 11 12 12 11 12 11 10 7 5 4 7 7 7
5 3 2 4 5 5 5 5 4 5 5 5 6 6 7 8 6 7 10 12 13 10 10 8 8 7 6 5 7 9 10 10
6 3 3 4 5 5 5 4 5 4 4 5 6 6 6 7 8 9 14 9 13 12 11 8 9 10 10 7 10 10 11 12
5 3 3 4 4 5 5 5 4 4 5 6 6 6 6 7 7 9 12 12 11 12 10 9 10 11 11 9 11 12 11 11
6 4 4 4 5 5 5 4 4 4 6 6 6 6 6 6 6 7 9 12 8 9 9 8 9 10 10 12 13 11 10 10
7 5 5 5 5 5 4 4 5 5 6 6 6 5 6 6 7 7 10 10 9 11 9 10 10 10 8 15 14 11 12 12
8 8 6 5 5 4 4 5 5 5 6 6 6 6 6 6 6 8 9 10 10 9 10 11 11 9 23 26 23 12 14 13
7 6 5 4 4 4 4 4 4 6 6 6 6 6 6 7 7 8 10 11 10 10 11 11 12 12 27 28 28 12 13 11
7 5 5 5 3 4 3 4 5 6 6 6 6 6 6 7 7 9 9 9 9 10 11 12 12 11 28 29 26 14 12 13
Wind_Direction
85 76 71 71 66 67 63 48 32 23 35 52 49 49 41 39 31 22 24 14 6 352 349 346 350 341 331 334 293 296 265 294
80 79 77 79 64 62 54 49 21 32 19 5 18 24 340 23 26 27 23 22 22 8 352 347 347 335 312 310 295 311 306 322
81 75 63 61 67 60 58 53 37 24 19 354 54 309 10 9 11 19 18 13 0 357 353 337 339 335 335 332 336 314 286 323
107 95 71 66 64 58 60 46 46 34 33 22 13 23 15 3 345 342 346 356 356 352 344 336 327 331 315 305 297 311 301 306
103 93 92 92 60 51 66 61 50 46 40 46 47 39 353 316 300 315 340 349 345 341 339 335 323 322 311 301 299 277 265 279
122 128 122 63 45 249 176 77 62 45 44 46 42 25 337 305 324 338 332 332 335 333 330 325 315 310 298 290 302 290 256 260
132 111 106 72 275 273 77 73 50 40 37 31 34 22 349 352 339 334 325 312 316 322 325 318 309 295 288 290 293 279 277 258
153 154 161 204 106 54 80 61 47 30 31 23 14 10 359 345 330 315 318 315 305 307 313 310 305 299 296 295 292 296 292 275
165 178 193 159 110 75 74 54 43 29 23 10 6 3 345 326 316 310 303 296 305 304 309 311 309 311 309 308 305 307 301 294
170 174 179 133 81 71 67 58 55 39 22 10 358 347 345 329 322 318 310 311 322 326 321 319 322 323 331 341 339 315 305 295
152 151 141 102 81 85 68 59 57 33 19 8 349 337 340 336 333 332 330 328 327 330 331 332 330 335 352 347 324 316 296 302
145 163 91 79 98 84 76 57 57 29 13 352 352 347 346 345 342 337 337 332 337 336 337 334 335 329 326 325 322 313 308 304
144 142 104 88 83 65 69 61 47 17 353 353 356 356 351 354 350 343 339 337 337 337 337 337 337 335 325 315 315 311 311 310
145 126 78 90 76 79 71 50 27 7 2 3 358 359 357 349 347 340 341 339 336 336 338 337 335 334 329 314 313 314 311 309
141 103 88 67 79 81 67 46 22 6 4 359 358 353 346 345 338 336 337 336 331 334 332 329 332 331 324 326 321 314 313 314
130 113 85 79 83 72 62 33 17 359 357 354 345 338 344 343 341 332 333 338 335 330 331 336 335 333 332 336 334 329 326 325
128 120 97 82 100 87 52 23 8 355 354 345 339 344 339 334 332 334 336 341 337 334 338 336 334 340 336 345 348 343 336 333
112 112 102 100 107 90 56 21 4 2 353 341 343 340 336 331 331 341 343 340 333 337 334 337 336 334 348 353 350 344 337 327
118 112 100 102 91 70 58 24 15 3 359 346 342 339 335 337 344 348 340 343 336 333 334 336 340 348 351 355 355 342 336 333